Flag for U.S.A. Weather past 2 weeks in Bryan – College Station, Texas, U.S.A.

Now
50 °F

Overcast.


Feels Like: 48 °F
Forecast: 45 / 60 °F
Wind: 6 mph from Northeast

Location: Easterwood Field

Current Time: Dec 20, 2014 at 10:07:35 PM

Latest Report: Dec 20, 2014 at 8:53 PM


Visibility: 10 mi

Pressure: 30.19 "Hg

Humidity: 83%

Dew point: 45 °F

Location of Bryan – College StationLocation

Historic Weather in Bryan – College Station — Graph

°F

Bryan – College Station temperature yesterday

Maximum temperature yesterday: 58 °F (at 1:53 PM)
Minimum temperature yesterday: 49 °F (at 11:00 PM)
Average temperature yesterday: 52 °F

Past Weeks' High & Low Weather Summary

 TemperatureHumidityPressure
High75 °F (Dec 14, 12:53 PM)100% (Dec 13, 4:53 AM)30.38 "Hg (Dec 13, 4:53 AM)
Low43 °F (Dec 9, 4:53 AM)20% (Dec 15, 3:53 PM)29.85 "Hg (Dec 14, 4:53 PM)
Average57 °F77%30.18 "Hg
* Reported Dec 5 8:53 PM — Dec 20 8:53 PM, Bryan – College Station, Weather by CustomWeather, © 2014

Note: Actual official high and low records may vary slightly from our data, if they occured in-between our weather recording intervals... More about our weather records

Advertising

Bryan – College Station weather history for previous 24 hours

 ConditionsComfort  
Time TempWeatherWind HumidityBarometerVisibility
8:53 PM
Dec 20
50 °FOvercast.6 mph83%30.19 "Hg10 mi
7:53 PM51 °FOvercast.6 mph80%30.19 "Hg10 mi
6:53 PM51 °FOvercast.6 mph83%30.18 "Hg10 mi
5:53 PM51 °FOvercast.6 mph83%30.16 "Hg10 mi
4:53 PM51 °FOvercast.6 mph86%30.16 "Hg9 mi
3:53 PM52 °FOvercast.8 mph83%30.16 "Hg8 mi
2:53 PM53 °FOvercast.9 mph80%30.15 "Hg9 mi
1:53 PM51 °FLow clouds.8 mph89%30.17 "Hg7 mi
12:53 PM52 °FLow clouds.8 mph86%30.19 "Hg8 mi
11:53 AM51 °FFog.9 mph89%30.22 "Hg6 mi
10:53 AM51 °FFog.9 mph89%30.23 "Hg6 mi
9:53 AM50 °FFog.6 mph89%30.23 "Hg6 mi
8:53 AM50 °FLow clouds.6 mph86%30.22 "Hg7 mi
7:53 AM50 °FLow clouds.7 mph89%30.21 "Hg8 mi
6:53 AM49 °FLow clouds.8 mph93%30.19 "Hg7 mi
5:53 AM49 °FLow clouds.8 mph93%30.18 "Hg8 mi
4:53 AM49 °FLow clouds.9 mph93%30.17 "Hg9 mi
4:04 AM49 °FMostly cloudy.8 mph90%30.17 "Hg10 mi
3:53 AM49 °FOvercast.8 mph90%30.17 "Hg10 mi
2:53 AM49 °FLow clouds.7 mph90%30.16 "Hg10 mi
1:53 AM49 °FMostly cloudy.8 mph90%30.17 "Hg10 mi
12:53 AM49 °FLow clouds.12 mph90%30.17 "Hg9 mi
11:53 PM
Dec 19
49 °FFog.10 mph93%30.17 "Hg6 mi
11:00 PM49 °FFog.12 mph93%30.18 "Hg5 mi
10:03 PM50 °FMostly cloudy.10 mph93%30.17 "Hg9 mi
Weather by CustomWeather, © 2014

See weather overviewHow to use our weather pages